カタログに戻る

JILIN-1 GAOFEN 03D-52

運用中科学PO
NORAD 54253·PAYLOAD·🇨🇳 China
この衛星名は、まだ公式ソースで確認されていません。

打ち上げ Nov 16, 2022 から Jiuquan Satellite Launch Center

Loading…

次のパス (今後24時間)

TLE

最新Source: Space-Track

元期: Sep 14, 2026, 13:49 UTC

1 54253U 22155C   26257.57593632  .00033220  00000-0  43937-3 0  9995
2 54253  97.6339  43.9789 0005002  44.9158 315.2501 15.58256991213381

AllMySatでJILIN-1 GAOFEN 03D-52をリアルタイム追跡

Download on the App Store